Maricopa West
DateTemperatureDew Point
08/31 - 09:30 PM67.4°50.7°
08/31 - 09:15 PM68.3°50.7°
08/31 - 09:00 PM69.1°50.3°
08/31 - 08:45 PM70.2°49.6°
08/31 - 08:30 PM70.9°49.7°
08/31 - 08:15 PM71.6°49.1°
08/31 - 08:00 PM72.0°48.9°
08/31 - 07:45 PM72.1°48.7°
08/31 - 07:30 PM72.5°48.5°
08/31 - 07:15 PM73.0°48.7°
08/31 - 07:00 PM74.1°48.6°
08/31 - 06:45 PM75.0°49.3°
08/31 - 06:30 PM75.4°50.0°
08/31 - 06:15 PM76.8°50.6°
08/31 - 06:00 PM78.1°50.8°
08/31 - 05:45 PM79.7°51.2°
08/31 - 05:30 PM81.0°51.6°
08/31 - 05:15 PM82.9°51.0°
08/31 - 05:00 PM84.2°50.1°
08/31 - 04:45 PM84.8°52.2°
08/31 - 04:30 PM85.4°53.4°
08/31 - 04:15 PM86.3°53.8°
08/31 - 04:00 PM88.1°55.1°
08/31 - 03:45 PM88.3°55.9°
08/31 - 03:30 PM88.4°55.7°
08/31 - 03:15 PM88.2°55.6°
08/31 - 03:00 PM88.0°54.9°
08/31 - 02:45 PM88.2°56.0°
08/31 - 02:30 PM88.7°56.6°
08/31 - 02:15 PM88.9°56.9°
08/31 - 02:00 PM89.4°57.1°
08/31 - 01:45 PM89.1°56.8°
08/31 - 01:30 PM88.8°57.7°
08/31 - 01:15 PM88.4°56.2°
08/31 - 01:00 PM88.3°57.4°
08/31 - 12:45 PM87.4°57.7°
08/31 - 12:30 PM86.2°56.7°
08/31 - 12:15 PM85.0°55.6°
08/31 - 12:00 PM84.6°55.9°
08/31 - 11:45 AM83.7°55.3°
08/31 - 11:30 AM83.2°54.1°
08/31 - 11:15 AM82.5°53.9°
08/31 - 11:00 AM81.4°53.3°
08/31 - 10:45 AM80.8°54.1°
08/31 - 10:30 AM79.9°54.1°
08/31 - 10:15 AM78.3°53.8°
08/31 - 10:00 AM77.5°53.8°
08/31 - 09:45 AM76.9°53.5°
08/31 - 09:30 AM75.8°53.1°
08/31 - 09:15 AM74.9°53.0°
08/31 - 09:00 AM73.8°53.2°
08/31 - 08:45 AM72.0°51.7°
08/31 - 08:30 AM70.4°51.1°
08/31 - 08:15 AM68.8°50.9°
08/31 - 08:00 AM67.1°50.4°
08/31 - 07:45 AM65.4°49.6°
08/31 - 07:30 AM63.9°49.1°
08/31 - 07:15 AM62.4°48.1°
08/31 - 07:00 AM61.3°47.3°
08/31 - 06:45 AM61.2°46.3°
08/31 - 06:30 AM60.7°45.4°
08/31 - 06:15 AM60.4°44.8°
08/31 - 06:00 AM59.6°44.5°
08/31 - 05:45 AM60.2°44.6°
08/31 - 05:30 AM61.4°44.2°
08/31 - 05:15 AM61.9°43.8°
08/31 - 05:00 AM62.2°43.5°
08/31 - 04:45 AM62.8°43.1°
08/31 - 04:30 AM63.5°42.4°
08/31 - 04:15 AM63.6°42.4°
08/31 - 04:00 AM63.9°42.2°
08/31 - 03:45 AM64.0°42.5°
08/31 - 03:30 AM64.6°42.3°
08/31 - 03:15 AM65.1°42.1°
08/31 - 03:00 AM65.5°42.1°
08/31 - 02:45 AM66.0°41.8°
08/31 - 02:30 AM66.5°42.1°
08/31 - 02:15 AM66.5°42.6°
08/31 - 02:00 AM66.8°43.0°
08/31 - 01:45 AM66.9°43.7°
08/31 - 01:30 AM67.1°44.0°
08/31 - 01:15 AM67.4°45.3°
08/31 - 01:00 AM67.6°45.5°
08/31 - 12:45 AM68.1°45.5°
08/31 - 12:30 AM68.5°45.0°
08/31 - 12:15 AM68.8°43.9°
08/31 - 12:00 AM69.9°41.7°
08/30 - 11:45 PM70.1°40.3°
08/30 - 11:30 PM70.4°40.4°
08/30 - 11:15 PM70.9°39.5°
08/30 - 11:00 PM71.5°38.8°
08/30 - 10:45 PM71.8°38.6°
08/30 - 10:30 PM72.0°38.1°
08/30 - 10:15 PM72.4°36.7°
08/30 - 10:00 PM72.8°34.9°
08/30 - 09:45 PM73.0°32.9°
08/30 - 09:30 PM73.6°32.9°
08/30 - 09:15 PM73.8°34.0°
08/30 - 09:00 PM74.1°37.4°
08/30 - 08:45 PM74.7°37.6°
08/30 - 08:30 PM75.2°38.1°
08/30 - 08:15 PM75.3°39.6°
08/30 - 08:00 PM75.7°41.7°
08/30 - 07:45 PM76.9°43.5°
08/30 - 07:30 PM77.5°46.3°
08/30 - 07:15 PM78.6°48.7°
08/30 - 07:00 PM79.7°49.9°
08/30 - 06:45 PM79.8°51.6°
08/30 - 06:30 PM81.8°52.4°
08/30 - 06:15 PM83.6°51.8°
08/30 - 06:00 PM85.2°52.2°
08/30 - 05:45 PM85.9°55.0°
08/30 - 05:30 PM87.3°65.4°
08/30 - 05:15 PM88.7°68.9°
08/30 - 05:00 PM89.8°65.0°
08/30 - 04:45 PM91.2°64.9°
08/30 - 04:30 PM92.0°64.2°
08/30 - 04:15 PM92.3°64.5°
08/30 - 04:00 PM92.8°64.4°
08/30 - 03:45 PM92.9°62.3°
08/30 - 03:30 PM92.6°62.5°
08/30 - 03:15 PM92.5°62.0°
08/30 - 03:00 PM92.0°61.3°
08/30 - 02:45 PM92.2°60.8°
08/30 - 02:30 PM91.6°59.4°
08/30 - 02:15 PM91.7°59.9°
08/30 - 02:00 PM91.9°59.6°
08/30 - 01:45 PM91.2°58.9°
08/30 - 01:30 PM91.2°57.4°
08/30 - 01:15 PM91.0°57.4°
08/30 - 01:00 PM89.9°56.5°
08/30 - 12:45 PM89.4°56.7°
08/30 - 12:30 PM88.8°57.1°
08/30 - 12:15 PM88.0°57.2°
08/30 - 12:00 PM87.2°56.5°
08/30 - 11:45 AM86.7°57.6°
08/30 - 11:30 AM85.5°58.0°
08/30 - 11:15 AM84.4°58.6°
08/30 - 11:00 AM83.2°57.7°
08/30 - 10:45 AM82.5°58.4°
08/30 - 10:30 AM81.2°58.2°
08/30 - 10:15 AM80.0°57.4°
08/30 - 10:00 AM79.3°57.6°
08/30 - 09:45 AM78.8°57.5°
08/30 - 09:30 AM77.5°57.3°
08/30 - 09:15 AM76.6°57.0°
08/30 - 09:00 AM75.9°57.2°
08/30 - 08:45 AM74.3°56.9°
08/30 - 08:30 AM72.2°55.9°
08/30 - 08:15 AM70.4°53.5°
08/30 - 08:00 AM68.2°53.8°
08/30 - 07:45 AM66.6°51.9°
08/30 - 07:30 AM64.5°51.1°
08/30 - 07:15 AM63.1°51.0°
08/30 - 07:00 AM62.8°49.0°
08/30 - 06:45 AM61.4°47.4°
08/30 - 06:30 AM60.2°46.8°
08/30 - 06:15 AM59.5°47.2°
08/30 - 06:00 AM60.1°48.6°
08/30 - 05:45 AM61.8°48.2°
08/30 - 05:30 AM62.9°47.6°
08/30 - 05:15 AM63.8°47.1°
08/30 - 05:00 AM64.3°46.9°
08/30 - 04:45 AM64.5°46.9°
08/30 - 04:30 AM64.5°46.6°
08/30 - 04:15 AM64.7°46.7°
08/30 - 04:00 AM64.9°46.9°
08/30 - 03:45 AM65.0°46.8°
08/30 - 03:30 AM65.5°47.3°
08/30 - 03:15 AM66.1°47.3°
08/30 - 03:00 AM66.5°47.6°
08/30 - 02:45 AM66.5°47.7°
08/30 - 02:30 AM67.0°47.9°
08/30 - 02:15 AM68.1°48.2°
08/30 - 02:00 AM68.4°48.4°
08/30 - 01:45 AM68.7°48.7°
08/30 - 01:30 AM69.2°48.6°
08/30 - 01:15 AM69.2°48.4°
08/30 - 01:00 AM69.4°48.6°
08/30 - 12:45 AM69.6°48.3°
08/30 - 12:30 AM70.0°47.9°
08/30 - 12:15 AM70.4°48.5°
08/30 - 12:00 AM70.9°48.9°
08/29 - 11:45 PM71.0°49.4°
08/29 - 11:30 PM71.8°50.2°
08/29 - 11:15 PM72.6°49.8°
08/29 - 11:00 PM73.3°50.0°
08/29 - 10:45 PM74.2°50.1°
08/29 - 10:30 PM75.0°48.9°
08/29 - 10:15 PM75.3°48.0°